Location: Asheville, NC
(35.6000°N, 82.5500°W)
Time: 03:23:44
(UTC-04:00)

Vanguard 2 Rocket - Pass Details

Date: 12 March 2018
Orbit: 553 x 3328 km, 32.9° (Epoch: 19 June)

Event Time Altitude Azimuth Distance (km) Brightness Sun altitude
Rises 03:18:20 0° 258° (WSW) 5,351 - -50.5°
Reaches altitude 10° 03:26:44 10° 225° (SW) 5,149 - -49.4°
Maximum altitude 03:29:27 11° 214° (SW) 5,309 - -49.0°
Drops below altitude 10° 03:32:21 10° 204° (SSW) 5,573 - -48.6°
Sets 03:44:03 0° 173° (S) 7,168 - -46.8°
